Chiang Mai, Thailand

3:37 PM ICT on August 01, 2015 (GMT +0700)
ThaiWx Station | | Change Station
CLOSE
Current Station
Personal Weather Station
Location: Chiang Mai, Pa Daet
Elevation: 1007 ft
Nearby Weather Stations

Elev 1007 ft 18.77 °N, 98.97 °E | Updated 4 minutes ago

Overcast
Overcast
85.8 °F
Feels Like 94 °F
N
3.8
Wind Variable Wind from South
Gusts 13.2 mph

Today
High -- | Low -- °F
--% Chance of Precip.
Yesterday
High -- | Low -- °F
Precip. -- in
6:01 AM 6:59 PM
Full, 99% visible
Pressure 29.80 in
Visibility 6.2 miles
Clouds Mostly Cloudy 3500 ft
Heat Index 94 °F
Dew Point 75 °F
Humidity 69%
Rainfall 0.00 in
Snow Depth Not available.
UV 5 out of 12
Pollen Not available.
Air Quality Not available.
Flu Activity Not available.
METAR VTCC 010830Z 21011KT 9999 -RA BKN035 28/22 Q1009 A2981 NOSIG

More Conditions Fewer Conditions

Pressure 29.80 in
Visibility 6.2 miles
Clouds Mostly Cloudy 3500 ft
Heat Index 94 °F
Dew Point 75 °F
Humidity 69%
Rainfall 0.00 in
Snow Depth Not available.
UV 5 out of 12
Pollen Not available.
Air Quality Not available.
Flu Activity Not available.
METAR VTCC 010830Z 21011KT 9999 -RA BKN035 28/22 Q1009 A2981 NOSIG

More Conditions Fewer Conditions

10-Day Weather Forecast

×

Almanac

Astronomy

Aug. 01, 2015 Rise Set
Actual Time
Civil Twilight
Nautical Twilight
Astronomical Twilight
Moon
Length of Visible Light
Length of Day
Tomorrow will be .
, % of the Moon is Illuminated

Today's Extremes

Country Highs Country Lows

Community

WunderPhotos

Upload Photos

1,842,905 photos uploaded!

WunderBlogs® & News

Nearby

Air Quality

  Air Quality AQ Index Pollutant
Not available.

Snow Depth

Station Depth Elevation

Earthquake Activity

City Distance Mag. Time & Date
Minimum magnitude displayed is 2.5.

Coastal Water Temperatures

Place Temperature

Stations

Nearby Weather Stations

Station Location Temp. Windchill Dew Point Humidity Wind Precip. Elev Updated Type